User: anonymous   Login
Location: Владивосток
(43.1151°N, 131.8856°E)
Time: 18:48:59
(UTC+10:00)
Language:

deb Kosmos-1275 - Orbit

View from above orbital plane
View from above orbital plane
View from above satellite
View from above satellite

Ground track
Ground track

The orbit data is extracted from the following two-line orbital elements,

1 15766U 81053KB  24205.81864326  .00010275  00000-0  36286-2 0  9995
2 15766  82.9421 148.5385 0005481 176.7957 183.3269 14.34596984 14782
Epoch (UTC): 23 July 2024 19:38:50
Eccentricity: 0.0005481
inclination: 82.9421°
perigee height: 772 km
apogee height: 780 km
right ascension of ascending node: 148.5385°
argument of perigee: 176.7957°
revolutions per day: 14.34596984
mean anomaly at epoch: 183.3269°
orbit number at epoch: 1478

The dashed part of the orbit path shows where the satellite is in the earth's shadow,  

DLR